{"data":{"norad_id":46478,"epoch":"2026-09-20T04:11:10.848768Z","epoch_age_seconds":101766,"freshness":"FRESH","line1":"1 46478U 20067A   26263.17443112  .00000316  00000+0  52474-4 0  9991","line2":"2 46478  97.8759 339.2669 0002949 344.1919  15.9199 14.76550290322278","mean_motion":14.7655029,"eccentricity":0.0002949,"inclination_deg":97.8759,"raan_deg":339.2669,"arg_perigee_deg":344.1919,"mean_anomaly_deg":15.9199,"bstar":5.2474e-5,"rev_number":32227,"period_min":97.524615974983,"perigee_km":638.16466989977,"apogee_km":642.30410534419,"semimajor_km":7018.371387622,"source":"CELESTRAK","updated_at":"2026-09-20T09:00:14.758748Z"}}